| time (UTC) | temp C | wind direction | speed KPH | gust KPH | rain 1hr cm | rain 24hr cm | rain mn cm | humidity % | barometer mb |
| 20260503233427 | 25 | 0 | 0.0 | 0.0 | 0.00 | 0.00 | 0.00 | 41 | 1016.4 |
| 20260503232927 | 25 | 0 | 0.0 | 0.0 | 0.00 | 0.00 | 0.00 | 40 | 1016.4 |
| 20260503232427 | 25 | 0 | 0.0 | 0.0 | 0.00 | 0.00 | 0.00 | 40 | 1016.4 |
| 20260503231928 | 25 | 0 | 0.0 | 0.0 | 0.00 | 0.00 | 0.00 | 39 | 1016.5 |
| 20260503231428 | 25 | 0 | 0.0 | 0.0 | 0.00 | 0.00 | 0.00 | 39 | 1016.5 |
| 20260503230928 | 25 | 0 | 0.0 | 0.0 | 0.00 | 0.00 | 0.00 | 40 | 1016.5 |
| 20260503230428 | 25 | 0 | 0.0 | 14.5 | 0.00 | 0.00 | 0.00 | 39 | 1016.5 |
| 20260503225927 | 25 | 0 | 0.0 | 14.5 | 0.00 | 0.00 | 0.00 | 38 | 1016.5 |
| 20260503225427 | 25 | 0 | 0.0 | 8.0 | 0.00 | 0.00 | 0.00 | 40 | 1016.6 |
| 20260503224928 | 25 | 169 | 1.6 | 8.0 | 0.00 | 0.00 | 0.00 | 39 | 1016.8 |
| 20260503224428 | 25 | 164 | 1.6 | 8.0 | 0.00 | 0.00 | 0.00 | 37 | 1016.7 |
| 20260503223927 | 25 | 165 | 1.6 | 8.0 | 0.00 | 0.00 | 0.00 | 36 | 1016.8 |
| 20260503223428 | 25 | 166 | 1.6 | 11.3 | 0.00 | 0.00 | 0.00 | 36 | 1016.8 |
| 20260503222928 | 25 | 164 | 1.6 | 11.3 | 0.00 | 0.00 | 0.00 | 36 | 1016.7 |
| 20260503221928 | 26 | 169 | 3.2 | 16.1 | 0.00 | 0.00 | 0.00 | 35 | 1016.9 |
| 20260503221428 | 26 | 156 | 3.2 | 16.1 | 0.00 | 0.00 | 0.00 | 34 | 1016.8 |
| 20260503220927 | 26 | 152 | 4.8 | 14.5 | 0.00 | 0.00 | 0.00 | 34 | 1017.0 |
| 20260503220429 | 26 | 155 | 6.4 | 12.9 | 0.00 | 0.00 | 0.00 | 36 | 1017.0 |
| 20260503215927 | 26 | 157 | 4.8 | 16.1 | 0.00 | 0.00 | 0.00 | 34 | 1017.0 |
| 20260503215428 | 26 | 162 | 4.8 | 16.1 | 0.00 | 0.00 | 0.00 | 35 | 1017.0 |
| 20260503214428 | 26 | 153 | 8.0 | 16.1 | 0.00 | 0.00 | 0.00 | 34 | 1017.3 |
| 20260503212929 | 26 | 164 | 4.8 | 16.1 | 0.00 | 0.00 | 0.00 | 34 | 1017.5 |
| 20260503212428 | 26 | 164 | 4.8 | 17.7 | 0.00 | 0.00 | 0.00 | 36 | 1017.6 |
| 20260503211428 | 26 | 162 | 3.2 | 12.9 | 0.00 | 0.00 | 0.00 | 36 | 1017.9 |
| 20260503210928 | 26 | 162 | 4.8 | 14.5 | 0.00 | 0.00 | 0.00 | 35 | 1018.0 |
| 20260503210427 | 26 | 162 | 4.8 | 14.5 | 0.00 | 0.00 | 0.00 | 34 | 1018.0 |
| 20260503205928 | 26 | 166 | 1.6 | 9.7 | 0.00 | 0.00 | 0.00 | 35 | 1018.0 |
| 20260503203928 | 26 | 162 | 4.8 | 14.5 | 0.00 | 0.00 | 0.00 | 33 | 1018.3 |
| 20260503203429 | 26 | 173 | 3.2 | 12.9 | 0.00 | 0.00 | 0.00 | 34 | 1018.5 |
| 20260503202428 | 26 | 194 | 3.2 | 22.5 | 0.00 | 0.00 | 0.00 | 36 | 1018.6 |
| 20260503201928 | 26 | 196 | 3.2 | 11.3 | 0.00 | 0.00 | 0.00 | 35 | 1018.6 |
| 20260503201427 | 26 | 170 | 3.2 | 16.1 | 0.00 | 0.00 | 0.00 | 34 | 1018.9 |
| 20260503200427 | 26 | 167 | 3.2 | 12.9 | 0.00 | 0.00 | 0.00 | 34 | 1019.0 |
| 20260503195927 | 26 | 153 | 3.2 | 12.9 | 0.00 | 0.00 | 0.00 | 36 | 1018.9 |
| 20260503195428 | 26 | 163 | 3.2 | 12.9 | 0.00 | 0.00 | 0.00 | 33 | 1019.0 |
| 20260503194927 | 26 | 183 | 3.2 | 11.3 | 0.00 | 0.00 | 0.00 | 34 | 1019.2 |
| 20260503193929 | 26 | 161 | 4.8 | 11.3 | 0.00 | 0.00 | 0.00 | 32 | 1019.3 |
| 20260503192928 | 26 | 152 | 4.8 | 14.5 | 0.00 | 0.00 | 0.00 | 33 | 1019.4 |
| 20260503192427 | 26 | 152 | 6.4 | 14.5 | 0.00 | 0.00 | 0.00 | 33 | 1019.4 |
| 20260503191928 | 26 | 151 | 4.8 | 11.3 | 0.00 | 0.00 | 0.00 | 31 | 1019.4 |
| 20260503191428 | 26 | 149 | 3.2 | 11.3 | 0.00 | 0.00 | 0.00 | 35 | 1019.5 |
| 20260503190929 | 26 | 158 | 3.2 | 12.9 | 0.00 | 0.00 | 0.00 | 36 | 1019.7 |
| 20260503190429 | 26 | 150 | 3.2 | 12.9 | 0.00 | 0.00 | 0.00 | 35 | 1019.7 |
| 20260503185928 | 26 | 150 | 3.2 | 11.3 | 0.00 | 0.00 | 0.00 | 34 | 1019.8 |
| 20260503185428 | 26 | 154 | 4.8 | 12.9 | 0.00 | 0.00 | 0.00 | 36 | 1020.0 |
| 20260503184930 | 26 | 156 | 4.8 | 12.9 | 0.00 | 0.00 | 0.00 | 35 | 1020.0 |
| 20260503184428 | 26 | 167 | 3.2 | 14.5 | 0.00 | 0.00 | 0.00 | 38 | 1020.2 |
| 20260503183929 | 26 | 205 | 1.6 | 14.5 | 0.00 | 0.00 | 0.00 | 37 | 1020.1 |
| 20260503183428 | 25 | 202 | 1.6 | 12.9 | 0.00 | 0.00 | 0.00 | 38 | 1020.2 |
| 20260503182928 | 25 | 168 | 3.2 | 12.9 | 0.00 | 0.00 | 0.00 | 38 | 1020.4 |
| 20260503182428 | 26 | 149 | 4.8 | 12.9 | 0.00 | 0.00 | 0.00 | 38 | 1020.5 |
| 20260503181928 | 25 | 152 | 4.8 | 12.9 | 0.00 | 0.00 | 0.00 | 38 | 1020.6 |
| 20260503181429 | 25 | 157 | 4.8 | 11.3 | 0.00 | 0.00 | 0.00 | 41 | 1020.7 |
| 20260503180429 | 25 | 164 | 3.2 | 17.7 | 0.00 | 0.00 | 0.00 | 39 | 1020.8 |
| 20260503175928 | 25 | 196 | 3.2 | 8.0 | 0.00 | 0.00 | 0.00 | 41 | 1020.9 |
| 20260503174927 | 25 | 176 | 3.2 | 12.9 | 0.00 | 0.00 | 0.00 | 41 | 1021.0 |
| 20260503174428 | 25 | 212 | 1.6 | 12.9 | 0.00 | 0.00 | 0.00 | 41 | 1021.1 |
| 20260503173928 | 25 | 225 | 3.2 | 14.5 | 0.00 | 0.00 | 0.00 | 40 | 1021.2 |
| 20260503173428 | 25 | 212 | 3.2 | 14.5 | 0.00 | 0.00 | 0.00 | 41 | 1021.4 |
| 20260503172928 | 25 | 188 | 4.8 | 16.1 | 0.00 | 0.00 | 0.00 | 40 | 1021.4 |
| 20260503172427 | 25 | 191 | 4.8 | 16.1 | 0.00 | 0.00 | 0.00 | 42 | 1021.6 |
| 20260503171930 | 25 | 200 | 1.6 | 14.5 | 0.00 | 0.00 | 0.00 | 43 | 1021.6 |
| 20260503171427 | 25 | 223 | 3.2 | 12.9 | 0.00 | 0.00 | 0.00 | 41 | 1021.6 |
| 20260503170929 | 25 | 225 | 3.2 | 12.9 | 0.00 | 0.00 | 0.00 | 46 | 1021.7 |
| 20260503150428 | 21 | 220 | 1.6 | 11.3 | 0.00 | 0.00 | 0.00 | 56 | 1022.5 |
| 20260503130928 | 14 | 0 | 0.0 | 4.8 | 0.00 | 0.00 | 0.00 | 81 | 1021.7 |
| 20260503130428 | 13 | 250 | 1.6 | 4.8 | 0.00 | 0.00 | 0.00 | 81 | 1021.6 |
| 20260503110430 | 12 | 240 | 1.6 | 8.0 | 0.00 | 0.00 | 0.00 | 82 | 1020.5 |
| 20260503090428 | 13 | 241 | 1.6 | 3.2 | 0.00 | 0.00 | 0.00 | 81 | 1020.4 |
| 20260503081429 | 13 | 0 | 0.0 | 3.2 | 0.00 | 0.00 | 0.00 | 79 | 1020.2 |
| 20260503080928 | 13 | 0 | 0.0 | 3.2 | 0.00 | 0.00 | 0.00 | 79 | 1020.2 |
| 20260503080429 | 13 | 0 | 0.0 | 3.2 | 0.00 | 0.00 | 0.00 | 79 | 1020.2 |
| 20260503072929 | 13 | 251 | 1.6 | 4.8 | 0.00 | 0.00 | 0.00 | 78 | 1020.3 |
| 20260503072428 | 13 | 0 | 0.0 | 3.2 | 0.00 | 0.00 | 0.00 | 77 | 1020.3 |
| 20260503071929 | 13 | 0 | 0.0 | 3.2 | 0.00 | 0.00 | 0.00 | 77 | 1020.4 |
| 20260503071428 | 13 | 0 | 0.0 | 1.6 | 0.00 | 0.00 | 0.00 | 76 | 1020.4 |
| 20260503070929 | 13 | 0 | 0.0 | 6.4 | 0.00 | 0.00 | 0.00 | 76 | 1020.5 |
| 20260503070428 | 14 | 0 | 0.0 | 6.4 | 0.00 | 0.00 | 0.00 | 76 | 1020.6 |
| 20260503054929 | 15 | 0 | 0.0 | 0.0 | 0.00 | 0.00 | 0.00 | 72 | 1020.8 |
| 20260503054428 | 15 | 0 | 0.0 | 0.0 | 0.00 | 0.00 | 0.00 | 72 | 1020.8 |
| 20260503053930 | 15 | 0 | 0.0 | 0.0 | 0.00 | 0.00 | 0.00 | 72 | 1020.8 |
| 20260503053429 | 15 | 0 | 0.0 | 1.6 | 0.00 | 0.00 | 0.00 | 72 | 1020.8 |
| 20260503052929 | 15 | 0 | 0.0 | 3.2 | 0.00 | 0.00 | 0.00 | 72 | 1020.8 |
| 20260503052428 | 15 | 0 | 0.0 | 3.2 | 0.00 | 0.00 | 0.00 | 72 | 1020.8 |
| 20260503051929 | 15 | 0 | 0.0 | 0.0 | 0.00 | 0.00 | 0.00 | 72 | 1020.7 |
| 20260503051429 | 15 | 0 | 0.0 | 3.2 | 0.00 | 0.00 | 0.00 | 72 | 1020.7 |
| 20260503050929 | 15 | 0 | 0.0 | 3.2 | 0.00 | 0.00 | 0.00 | 72 | 1020.7 |
| 20260503050430 | 15 | 0 | 0.0 | 3.2 | 0.00 | 0.00 | 0.00 | 72 | 1020.6 |
| 20260503045930 | 15 | 0 | 0.0 | 1.6 | 0.00 | 0.00 | 0.00 | 72 | 1020.5 |
| 20260503045428 | 15 | 0 | 0.0 | 0.0 | 0.00 | 0.00 | 0.00 | 72 | 1020.5 |
| 20260503044929 | 15 | 0 | 0.0 | 3.2 | 0.00 | 0.00 | 0.00 | 72 | 1020.5 |
| 20260503044428 | 15 | 0 | 0.0 | 3.2 | 0.00 | 0.00 | 0.00 | 72 | 1020.5 |
| 20260503043430 | 15 | 0 | 0.0 | 1.6 | 0.00 | 0.00 | 0.00 | 72 | 1020.5 |
| 20260503042928 | 15 | 0 | 0.0 | 1.6 | 0.00 | 0.00 | 0.00 | 72 | 1020.5 |
| 20260503042430 | 15 | 0 | 0.0 | 0.0 | 0.00 | 0.00 | 0.00 | 72 | 1020.6 |
| 20260503041930 | 15 | 0 | 0.0 | 0.0 | 0.00 | 0.00 | 0.00 | 71 | 1020.5 |
| 20260503040929 | 15 | 0 | 0.0 | 0.0 | 0.00 | 0.00 | 0.00 | 71 | 1020.5 |
| 20260503035928 | 15 | 0 | 0.0 | 0.0 | 0.00 | 0.00 | 0.00 | 70 | 1020.4 |
| 20260503035429 | 15 | 0 | 0.0 | 0.0 | 0.00 | 0.00 | 0.00 | 70 | 1020.4 |
| 20260503034929 | 15 | 0 | 0.0 | 0.0 | 0.00 | 0.00 | 0.00 | 69 | 1020.4 |
| 20260503034428 | 15 | 0 | 0.0 | 0.0 | 0.00 | 0.00 | 0.00 | 69 | 1020.4 |
| 20260503033929 | 16 | 0 | 0.0 | 0.0 | 0.00 | 0.00 | 0.00 | 69 | 1020.5 |
| 20260503033429 | 16 | 0 | 0.0 | 0.0 | 0.00 | 0.00 | 0.00 | 68 | 1020.4 |
| 20260503032929 | 16 | 0 | 0.0 | 0.0 | 0.00 | 0.00 | 0.00 | 67 | 1020.4 |
| 20260503032429 | 16 | 0 | 0.0 | 0.0 | 0.00 | 0.00 | 0.00 | 67 | 1020.4 |
| 20260503031928 | 16 | 0 | 0.0 | 0.0 | 0.00 | 0.00 | 0.00 | 67 | 1020.4 |
| 20260503031429 | 16 | 0 | 0.0 | 0.0 | 0.00 | 0.00 | 0.00 | 67 | 1020.3 |
| 20260503030429 | 16 | 0 | 0.0 | 0.0 | 0.00 | 0.00 | 0.00 | 67 | 1020.2 |
| 20260503025929 | 16 | 0 | 0.0 | 0.0 | 0.00 | 0.00 | 0.00 | 65 | 1020.2 |
| 20260503025429 | 16 | 0 | 0.0 | 0.0 | 0.00 | 0.00 | 0.00 | 63 | 1020.1 |
| 20260503024429 | 16 | 0 | 0.0 | 0.0 | 0.00 | 0.00 | 0.00 | 60 | 1019.9 |
| 20260503023929 | 16 | 0 | 0.0 | 0.0 | 0.00 | 0.00 | 0.00 | 60 | 1019.9 |
| 20260503023428 | 17 | 0 | 0.0 | 0.0 | 0.00 | 0.00 | 0.00 | 59 | 1019.8 |
| 20260503022428 | 17 | 0 | 0.0 | 0.0 | 0.00 | 0.00 | 0.00 | 58 | 1019.8 |
| 20260503021929 | 17 | 0 | 0.0 | 0.0 | 0.00 | 0.00 | 0.00 | 55 | 1019.7 |
| 20260503021428 | 17 | 0 | 0.0 | 0.0 | 0.00 | 0.00 | 0.00 | 52 | 1019.7 |
| 20260503020929 | 17 | 0 | 0.0 | 0.0 | 0.00 | 0.00 | 0.00 | 52 | 1019.7 |
| 20260503020429 | 18 | 0 | 0.0 | 0.0 | 0.00 | 0.00 | 0.00 | 49 | 1019.7 |
| 20260503015929 | 18 | 0 | 0.0 | 0.0 | 0.00 | 0.00 | 0.00 | 49 | 1019.7 |
| 20260503015429 | 18 | 0 | 0.0 | 0.0 | 0.00 | 0.00 | 0.00 | 48 | 1019.5 |
| 20260503014929 | 18 | 0 | 0.0 | 0.0 | 0.00 | 0.00 | 0.00 | 48 | 1019.3 |
| 20260503014428 | 19 | 0 | 0.0 | 0.0 | 0.00 | 0.00 | 0.00 | 47 | 1019.4 |
| 20260503013929 | 20 | 0 | 0.0 | 0.0 | 0.00 | 0.00 | 0.00 | 46 | 1019.4 |
| 20260503013430 | 20 | 0 | 0.0 | 0.0 | 0.00 | 0.00 | 0.00 | 45 | 1019.4 |
| 20260503012930 | 20 | 0 | 0.0 | 0.0 | 0.00 | 0.00 | 0.00 | 44 | 1019.3 |
| 20260503012429 | 21 | 0 | 0.0 | 0.0 | 0.00 | 0.00 | 0.00 | 44 | 1019.3 |
| 20260503011929 | 21 | 0 | 0.0 | 0.0 | 0.00 | 0.00 | 0.00 | 44 | 1019.3 |
| 20260503011429 | 21 | 0 | 0.0 | 0.0 | 0.00 | 0.00 | 0.00 | 44 | 1019.3 |
| 20260503010429 | 22 | 0 | 0.0 | 0.0 | 0.00 | 0.00 | 0.00 | 43 | 1019.2 |
| 20260503005931 | 22 | 0 | 0.0 | 0.0 | 0.00 | 0.00 | 0.00 | 43 | 1019.3 |
| 20260503005429 | 22 | 0 | 0.0 | 0.0 | 0.00 | 0.00 | 0.00 | 43 | 1019.3 |
| 20260503004929 | 23 | 0 | 0.0 | 0.0 | 0.00 | 0.00 | 0.00 | 43 | 1019.3 |
| 20260503004428 | 23 | 0 | 0.0 | 0.0 | 0.00 | 0.00 | 0.00 | 42 | 1019.2 |
| 20260503003929 | 23 | 0 | 0.0 | 0.0 | 0.00 | 0.00 | 0.00 | 41 | 1019.2 |
| 20260503002929 | 24 | 0 | 0.0 | 0.0 | 0.00 | 0.00 | 0.00 | 43 | 1019.2 |
| 20260503001929 | 24 | 0 | 0.0 | 0.0 | 0.00 | 0.00 | 0.00 | 42 | 1019.1 |
| 20260503001428 | 24 | 0 | 0.0 | 0.0 | 0.00 | 0.00 | 0.00 | 43 | 1019.1 |
| 20260503000430 | 24 | 0 | 0.0 | 1.6 | 0.00 | 0.00 | 0.00 | 41 | 1019.1 |
| 20260502235929 | 24 | 0 | 0.0 | 3.2 | 0.00 | 0.00 | 0.00 | 38 | 1019.1 |
| 20260502235431 | 24 | 0 | 0.0 | 3.2 | 0.00 | 0.00 | 0.00 | 43 | 1019.1 |
| 20260502234929 | 24 | 0 | 0.0 | 3.2 | 0.00 | 0.00 | 0.00 | 43 | 1019.0 |
| 20260502234428 | 24 | 0 | 0.0 | 3.2 | 0.00 | 0.00 | 0.00 | 42 | 1019.1 |
| 20260502233929 | 24 | 6 | 1.6 | 8.0 | 0.00 | 0.00 | 0.00 | 42 | 1019.1 |